Weather in Vishnevka

Russia / Volgograd Oblast     49°25′37″N   46°46′18″E
temp.,
°C
wind,
m/s
gust,
m/s
humid.,
%
clouds,
%
prec.,
mm/h
press.,
hPa
HPBL,
m
7 august, sun
sun700:00+28ene511248 0.0 1014289
03:00+24ne511315 0.0 1015201
06:00+26ene5103091 0.0 1015301
09:00+31e782210 0.0 10151247
12:00+34e671712 0.0 10153904
15:00+35e76148 0.0 10144071
18:00+33e57153 0.0 10132788
21:00+28ne5102399 0.0 1014242
8 august, mon
mon800:00+25nne473097 0.0 1015150
03:00+24e47302 0.0 1015113
06:00+25ne353332 0.0 1016118
09:00+32ene46226 0.1 10161411
12:00+33ene661763 0.0 10163548
15:00+34ene451618 0.0 10153807
18:00+29n682850 0.6 1016541
21:00+27ssw5635100 0.7 1018150
9 august, tue
tue900:00+24n594051 0.1 1016188
03:00+24ne334055 0.1 101633
06:00+25ne373716 0.0 1017182
09:00+31ene44255 0.0 10171287
12:00+34ene4320100 0.0 10163777
15:00+34ne5420100 0.0 10163087
18:00+32ne782696 0.0 10161235
21:00+28ene5103128 0.0 1016222
10 august, wed
wed1000:00+26e37352 0.0 1016144
03:00+25ene33395 0.0 101641
06:00+25ne36435 0.0 1017136
09:00+32ne45290 0.0 10161080
12:00+34ene43211 0.0 10163133
15:00+36e331925 0.0 10143453
18:00+35e43195 0.0 10133268
21:00+29ene5122856 0.0 1014279
11 august, thu
thu1100:00+30ene5829100 0.0 1014169
03:00+30se4628100 0.0 1014110
06:00+28s34309 0.0 1015110
09:00+34se23225 0.0 10151485
12:00+37ese55177 0.0 10143612
15:00+37se6514100 0.0 10143823
18:00+36ese44142 0.0 10142631
21:00+28ne713395 0.0 1015301